New Bedford, MA

6:21 AM EDT on September 26, 2017 (GMT -0400)
New Bedford Regional

Weather History for KEWB - September, 2013

Change the Weather History Date:

Saturday, September 28, 2013

  Actual Average Record
Temperature  
Mean Temperature 58 °F -  
Max Temperature 73 °F 70 °F 82 °F (2014)
Min Temperature 43 °F 53 °F 32 °F (2003)
Degree Days  
Heating Degree Days 7    
Growing Degree Days 8 (Base 50)    
Moisture  
Dew Point 48 °F    
Average Humidity 82    
Maximum Humidity 100    
Minimum Humidity 46    
Precipitation  
Precipitation 0.00 in - - ()
Sea Level Pressure  
Sea Level Pressure 30.27 in    
Wind  
Wind Speed 2 mph (NNE)    
Max Wind Speed 10 mph    
Max Gust Speed 17 mph    
Visibility 8 miles    
Events Fog    
Averages and records for this station are not official NWS values.
T = Trace of Precipitation, MM = Missing Value Source: NWS Daily Summary

Daily Weather History Graph

Daily Weather History Graph

Search for Another Location

Airport or City:

Trip Planner

Search our weather history database for the weather conditions in past years. The results will help you decide how hot, cold, wet, or windy it might be!

Date:

Astronomy

Sep. 28, 2013 Rise Set
Actual Time 6:37 AM EDT 6:30 PM EDT
Civil Twilight 6:10 AM EDT 6:57 PM EDT
Nautical Twilight 5:37 AM EDT 7:30 PM EDT
Astronomical Twilight 5:04 AM EDT 8:02 PM EDT
Moon 12:18 AM EDT (9/28) 2:51 PM EDT (9/28)
Length of Visible Light 12h 47m
Length of Day
11h 52m
Last Quarter, 36% of the Moon is Illuminated
Sep 28
Last Quarter
Oct 4
New
Oct 11
First Quarter
Oct 18
Full
Oct 26
Last Quarter

Hourly Weather History & Observations

Time (EDT) Temp. Dew Point Humidity Pressure Visibility Wind Dir Wind Speed Gust Speed Precip Events Conditions
12:53 AM 44.1 °F 43.0 °F 96% 30.25 in 10.0 mi Calm Calm - N/A   Clear
1:16 AM 44.6 °F 42.8 °F 93% 30.26 in 1.8 mi Calm Calm - N/A   Clear
1:25 AM 44.6 °F 42.8 °F 93% 30.26 in 3.0 mi Calm Calm - N/A   Clear
1:53 AM 44.1 °F 43.0 °F 96% 30.25 in 10.0 mi Calm Calm - N/A   Clear
2:53 AM 43.0 °F 42.1 °F 97% 30.25 in 10.0 mi Calm Calm - N/A   Clear
3:53 AM 43.0 °F 42.1 °F 97% 30.24 in 7.0 mi Calm Calm - N/A   Clear
4:53 AM 43.0 °F 42.1 °F 97% 30.25 in 10.0 mi Calm Calm - N/A   Clear
5:53 AM 43.0 °F 41.0 °F 93% 30.26 in 10.0 mi Calm Calm - N/A   Clear
6:53 AM 45.0 °F 43.0 °F 93% 30.28 in 10.0 mi Calm Calm - N/A   Clear
7:53 AM 53.1 °F 50.0 °F 89% 30.29 in 10.0 mi Calm Calm - N/A   Clear
8:53 AM 57.9 °F 53.1 °F 84% 30.30 in 10.0 mi North 3.5 mph - N/A   Clear
9:53 AM 64.9 °F 53.1 °F 65% 30.31 in 10.0 mi Variable 4.6 mph - N/A   Clear
10:53 AM 66.9 °F 54.0 °F 63% 30.30 in 10.0 mi North 4.6 mph - N/A   Clear
11:53 AM 72.0 °F 54.0 °F 53% 30.30 in 10.0 mi NE 8.1 mph - N/A   Scattered Clouds
12:53 PM 72.0 °F 54.0 °F 53% 30.28 in 10.0 mi North 6.9 mph - N/A   Clear
1:53 PM 72.0 °F 50.0 °F 46% 30.27 in 10.0 mi NNE 8.1 mph - N/A   Partly Cloudy
2:53 PM 73.0 °F 51.1 °F 46% 30.27 in 10.0 mi NE 10.4 mph 17.3 mph N/A   Partly Cloudy
3:53 PM 70.0 °F 51.1 °F 51% 30.26 in 10.0 mi NNE 9.2 mph - N/A   Partly Cloudy
4:53 PM 70.0 °F 53.1 °F 55% 30.27 in 10.0 mi ENE 6.9 mph - N/A   Partly Cloudy
5:53 PM 66.0 °F 54.0 °F 65% 30.27 in 10.0 mi NNE 5.8 mph - N/A   Clear
6:53 PM 59.0 °F 54.0 °F 83% 30.27 in 10.0 mi NNE 4.6 mph - N/A   Clear
7:53 PM 55.9 °F 53.1 °F 90% 30.27 in 10.0 mi Calm Calm - N/A   Clear
8:53 PM 52.0 °F 51.1 °F 97% 30.27 in 10.0 mi Calm Calm - N/A   Clear
9:53 PM 51.1 °F 48.9 °F 92% 30.27 in 10.0 mi Calm Calm - N/A   Clear
10:45 PM 46.4 °F 46.4 °F 100% 30.27 in 1.0 mi Calm Calm - N/A   Mist
10:53 PM 46.9 °F 46.0 °F 97% 30.27 in 0.5 mi Calm Calm - N/A Fog Fog
11:00 PM 46.4 °F 46.4 °F 100% 30.26 in 0.5 mi Calm Calm - N/A Fog Fog
11:25 PM 46.4 °F 44.6 °F 93% 30.26 in 1.5 mi Calm Calm - N/A   Clear
11:35 PM 46.4 °F 46.4 °F 100% 30.26 in 0.5 mi Calm Calm - N/A Fog Fog
11:53 PM 46.0 °F 45.0 °F 96% 30.25 in 0.2 mi Calm Calm - N/A Fog Fog